Regional Weather Roundup
Issued by NWS Green Bay, WI

Home | Current Version | Previous Version | Graphics & Text | Print | Product List | Glossary Off
Versions: 1 2 3 4 5 6 7 8 9 10 11 12 13 14 15 16 17 18 19 20 21 22 23 24 25 26 27 28 29 30 31 32 33 34 35 36 37 38 39 40 41 42 43 44 45 46 47 48 49 50

000
ASUS43 KGRB 261400
RWRGRB

NORTH-CENTRAL AND NORTHEAST WISCONSIN REGIONAL WEATHER ROUNDUP
NATIONAL WEATHER SERVICE GREEN BAY WI
900 AM CDT MON SEP 26 2016

WIZ005-009-010>012-018-019-261500-
NORTH CENTRAL WISCONSIN

CITY           SKY/WX    TMP DP  RH WIND       PRES   REMARKS
IRONWOOD       LGT RAIN  49  47  93 W23       29.66S FOG
MANITOWISH WTR NOT AVBL
ARBOR VITAE    NOT AVBL
EAGLE RIVER    NOT AVBL
LAND O LAKES   NOT AVBL
RHINELANDER    LGT RAIN  49  47  93 W16G23    29.74S
PHILLIPS       NOT AVBL
ANTIGO         NOT AVBL
TOMAHAWK       NOT AVBL
MERRILL        NOT AVBL
$$

WIZ013-073-261500-
NORTHEAST WISCONSIN

CITY           SKY/WX    TMP DP  RH WIND       PRES   REMARKS
IRON MOUNTAIN  CLOUDY    52  45  77 W12       29.67F
MARINETTE      MOSUNNY   55  46  71 W10G17    29.74F
$$

WIZ017-030-035>037-045-261500-
CENTRAL WISCONSIN

CITY           SKY/WX    TMP DP  RH WIND       PRES   REMARKS
MEDFORD        NOT AVBL
WAUSAU         CLOUDY    52  43  71 W16G29    29.79S
MOSINEE        PTSUNNY   52  45  76 W15G24    29.82F
MARSHFIELD     MOSUNNY   54  42  64 W15G25    29.84S
WISC RAPIDS    MOSUNNY   55  45  68 W15G22    29.88S
STEVENS POINT  NOT AVBL
WAUPACA        NOT AVBL
SHAWANO        NOT AVBL
CLINTONVILLE   NOT AVBL
WAUTOMA        SUNNY     56  45  66 SW18G25   29.87F
$$

WIZ038-039-048-051-261500-
FOX VALLEY

CITY           SKY/WX    TMP DP  RH WIND       PRES   REMARKS
NWS GREEN BAY  PTSUNNY   56  47  71 W17G26    29.81S
APPLETON       MOSUNNY   55  43  62 W15G25    29.83F
OSHKOSH        SUNNY     56  44  64 W13G23    29.85F
FOND DU LAC    SUNNY     57  45  64 W13G22    29.89S
$$

WIZ022-050-052-261500-
EAST CENTRAL WISCONSIN

CITY           SKY/WX    TMP DP  RH WIND       PRES   REMARKS
EPHRAIM        PTSUNNY   54  47  76 W12G23    29.74S
WASHINGTON ISL NOT AVBL
STURGEON BAY   PTSUNNY   56  46  69 W21G30    29.76F
MANITOWOC      NOT AVBL
SHEBOYGAN      SUNNY     57  45  64 W18G26    29.86F
$$

LMZ563-521-522-541>543-261500-
LAKESHORE

STATION/POSITION TIME  TEMP    WIND        PRES    VSBY  WAVE
                       AIR SEA DIR/SP/G                  HT/PER
                 (UTC) (F)     (DEG/KT/KT) (MB)    (MI)  (FT/S)
SHEBOYGAN LKSHOR 1300   56     240/ 13/ 16 1011.2F
KEWAUNEE LKSHORE 1300   55     230/  9/ 15 1008.9F
NORTHPORT PIER   1300   54     250/  6/ 20 1007.1
N MID LAKE BUOY  1250   58 67  240/ 23/ 29 1005.8S         5/ 5
CHAMBERS ISLAND  1300   55     210/ 12/ 24 1007.1F
MENOMINEE LKSHOR 1300   53     230/ 12/ 18 1006.9F
$$



USA.gov is the U.S. government's official web portal to all federal, state and local government web resources and services.